Regional Weather Roundup
Issued by NWS

Home | Current Version | Previous Version | Text Only | Print | Product List | Glossary Off
Versions: 1 2 3 4 5 6 7 8 9 10 11 12 13 14 15 16 17 18 19 20 21 22 23 24 25 26 27 28 29 30 31 32 33 34 35 36 37 38 39 40 41 42 43 44 45 46 47 48 49 50

000
ASUS43 KMKX 040600
RWRWI

WISCONSIN REGIONAL WEATHER ROUNDUP
NATIONAL WEATHER SERVICE MILWAUKEE/SULLIVAN WI
100 AM CDT SAT JUL 04 2015

NOTE: "FAIR" INDICATES FEW OR NO CLOUDS BELOW 12,000 FEET WITH NO
SIGNIFICANT WEATHER AND/OR OBSTRUCTIONS TO VISIBILITY.

WIZ001-002-006>008-014>016-023>028-040700-
NORTHWEST WISCONSIN

CITY           SKY/WX    TMP DP  RH WIND       PRES   REMARKS
SUPERIOR ARPT  CLEAR     57  56  99 CALM      29.91R FOG
ASHLAND        FOG       57  57 100 W3        29.91R VSB 1/4
6HR MIN TEMP:  57; 6HR MAX TEMP:  77;

HAYWARD        FOG       58  57  97 CALM      29.93S VSB 1/4
6HR MIN TEMP:  57; 6HR MAX TEMP:  74; 6HR PCP: TRACE;

SIREN          PTCLDY    62  60  94 CALM      29.92S
CUMBERLAND     PTCLDY    63  61  94 CALM      29.93S
RICE LAKE      PTCLDY    65  62  92 CALM      29.93S FOG
CHETEK         MOCLDY    66  61  85 CALM      29.92S
LADYSMITH      PTCLDY    60  58  92 CALM      29.93S
EAU CLAIRE     MOCLDY    64  57  78 SW6       29.91S
6HR MIN TEMP:  64; 6HR MAX TEMP:  74;

MENOMONIE      PTCLDY    64  59  85 CALM      29.92S
NEW RICHMOND   CLEAR     63  59  86 CALM      29.93S
OSCEOLA        CLEAR     62  62 100 CALM      29.95S
$$

WIZ003>005-009-010-017-018-040700-
NORTH CENTRAL WISCONSIN

CITY           SKY/WX    TMP DP  RH WIND       PRES   REMARKS
MANITOWISH WTR FOG       55  55 100 CALM      29.92F VSB 1/4
ARBOR VITAE    CLEAR     60  58  94 CALM      29.93S FOG
WOODRUFF       CLEAR     60  58  94 CALM      29.93S FOG
RHINELANDER    PTCLDY    58  56  93 W5        29.94F
6HR MIN TEMP:  58; 6HR MAX TEMP:  72; 6HR PCP: TRACE;

EAGLE RIVER    CLEAR     57  57 100 CALM      29.93S FOG
LAND O LAKES   CLEAR     55  54  97 CALM      29.94S FOG
PHILLIPS       PTCLDY    61  59  92 CALM      29.92F
TOMAHAWK       MOCLDY    61  59  93 CALM      29.93F FOG
MEDFORD        CLEAR     58  57  94 CALM      29.93S
MERRILL        CLOUDY    62  61  97 CALM      29.94S
$$

WIZ029-030-035-036-043>047-040700-
CENTRAL WISCONSIN

CITY           SKY/WX    TMP DP  RH WIND       PRES   REMARKS
WAUSAU         MOCLDY    64  58  80 W6        29.92R
6HR MIN TEMP:  63; 6HR MAX TEMP:  74;

MOSINEE        PTCLDY    63  55  77 W3        29.94S
MARSHFIELD     PTCLDY    61  55  81 SW3       29.93S
6HR MIN TEMP:  60; 6HR MAX TEMP:  73;

STEVENS POINT  PTCLDY    58  55  89 CALM      29.94S
WAUPACA        MOCLDY    63  60  90 SW3       29.93S
WAUTOMA        NOT AVBL
WISC RAPIDS    PTCLDY    58  55  90 CALM      29.94S
6HR MIN TEMP:  58; 6HR MAX TEMP:  75;

CAMP DOUGLAS   PTCLDY    57  57 100 SE1       29.93S FOG
$$

WIZ011>013-019>022-031-037>040-048>050-040700-
NORTHEAST WISCONSIN

CITY           SKY/WX    TMP DP  RH WIND       PRES   REMARKS
ANTIGO         MOCLDY    58  56  94 CALM      29.94R
SHAWANO        MOCLDY    64  58  82 CALM      29.91S
OCONTO         PTCLDY    56  56 100 CALM      29.89S
STURGEON BAY   CLEAR     61  52  72 S6        29.92S
6HR MIN TEMP:  61; 6HR MAX TEMP:  72;

GREEN BAY      MOCLDY    63  58  83 CALM      29.91S
6HR MIN TEMP:  63; 6HR MAX TEMP:  74;

MANITOWOC      NOT AVBL
APPLETON       MOCLDY    63  55  77 W6        29.93S
CLINTONVILLE   MOCLDY    61  57  88 CALM      29.91S
OSHKOSH        PTCLDY    65  56  72 VRB3      29.92S
6HR MIN TEMP:  64; 6HR MAX TEMP:  74;

$$

WIZ032>034-041-042-053>061-040700-
SOUTHWEST WISCONSIN

CITY           SKY/WX    TMP DP  RH WIND       PRES   REMARKS
LA CROSSE      CLEAR     64  60  87 SE5       29.93S
6HR MIN TEMP:  63; 6HR MAX TEMP:  77;

SPARTA         PTCLDY    56  54  92 CALM      29.94F
VIROQUA        CLEAR     63  59  85 SW6       29.95F
BOSCOBEL       CLEAR     57  55  93 CALM      29.96S
6HR MIN TEMP:  57; 6HR MAX TEMP:  75;

PRAIRIE DU CHI CLEAR     59  56  92 CALM      29.95S
PLATTEVILLE    CLEAR     62  55  79 S3        29.97S
$$

WIZ056-057-062-063-064-067-068-040700-
SOUTH CENTRAL WISCONSIN

CITY           SKY/WX    TMP DP  RH WIND       PRES   REMARKS
REEDSBURG      CLEAR     58  58  97 CALM      29.94S
BARABOO/DELLS  CLEAR     59  56  90 S3        29.95S
LONE ROCK      NOT AVBL
MINERAL POINT  CLEAR     63  52  67 S3        29.97S
MADISON        CLEAR     59  54  83 CALM      29.94F
6HR MIN TEMP:  59; 6HR MAX TEMP:  74;

MIDDLETON      CLEAR     59  58  94 CALM      29.96S
WATERTOWN      CLEAR     56  56 100 CALM      29.94S
MONROE         CLEAR     64  52  63 W7        29.96F
JANESVILLE     CLEAR     59  57  94 CALM      29.95F
$$

WIZ051-052-058>065-066-070>072-040700-
SOUTHEAST WISCONSIN

CITY           SKY/WX    TMP DP  RH WIND       PRES   REMARKS
MILWAUKEE      PTCLDY    62  52  69 SW7       29.94F
6HR MIN TEMP:  62; 6HR MAX TEMP:  67;

WAUKESHA       CLEAR     59  52  77 SW6       29.96S
MILWAUKEE/TIMM CLEAR     59  50  72 CALM      29.95F
RACINE         CLEAR     59  52  77 SW5       29.96F
6HR MIN TEMP:  58; 6HR MAX TEMP:  68;

BURLINGTON     CLEAR     54  53  97 CALM      29.96S
KENOSHA        CLEAR     56  52  86 SW5       29.95F
6HR MIN TEMP:  55; 6HR MAX TEMP:  69;

FOND DU LAC    PTCLDY    63  56  78 SW5       29.93S
6HR MIN TEMP:  63; 6HR MAX TEMP:  73;

SHEBOYGAN      MOCLDY    59  53  80 SW5       29.93S
6HR MIN TEMP:  56; 6HR MAX TEMP:  69; 6HR PCP: TRACE;

WEST BEND      CLEAR     55  52  88 CALM      29.95S
JUNEAU         CLEAR     59  54  82 SW3       29.95F
$$

LSZ147-162-040700-
LAKE SUPERIOR

STATION/POSITION TIME  TEMP    WIND        PRES    WAVE
                       AIR SEA DIR/SP/G            HT/PER
                 (UTC) (F)     (DEG/KT/KT) (MB)    (FT/S)
W MID LAKE BUOY  0450   43 38   40/  4/  4 1013.1R   1
DEVILS ISLAND    0500   62      50/  6/  6 1012.8R
SAXON HARBOR     0500   63        CALM     1012.2R
$$

LMZ867-665-643>646-040700-
LAKE MICHIGAN

STATION/POSITION TIME  TEMP    WIND        PRES    WAVE
                       AIR SEA DIR/SP/G            HT/PER
                 (UTC) (F)     (DEG/KT/KT) (MB)    (FT/S)
CHAMBERS ISLAND  0500   66     180/  4/  8 1011.9F
S GREEN BAY BUOY 0500   70 69  210/  8/ 10 1013.7
N MID LAKE BUOY  0450   49 43  200/ 10/ 10 1012.3R   2/ 4
NORTHPORT PIER   0500   64     210/  2/  6 1011.9S
SISTER BAY       0514   69     220/  8/  9   N/A
ALGOMA LAKESHORE 0525             CALM       N/A
KEWAUNEE LAKESHO 0500   64     350/  1/  3 1012.1S
SHEBOYGAN LAKESH 0500   62     210/  9/  9 1013.7R
PORT WASHINGTON  0540   60      CALM  /  2 1014.6R
ATWATER BUOY     0500   64 61  200/  6/  6 1015.3R
MILWAUKEE LAKESH 0500   66     220/  6/  7   N/A
KENOSHA   LAKESH 0500   63     220/  3/  5 1014.2S
$$

TC  - TEMPERATURE IN CELSIUS
VSB - VISIBILITY IN STATUTE MILES
WCI - WIND CHILL INDEX
HX  - HEAT INDEX



USA.gov is the U.S. government's official web portal to all federal, state and local government web resources and services.